Weather History for Burley, ID

Change the Weather History Date:

Sunday, March 10, 2013

  Actual Average Record
Temperature  
Mean Temperature 40 °F 38 °F  
Max Temperature 52 °F 49 °F 71 °F (1989)
Min Temperature 27 °F 27 °F 11 °F (1969)
Degree Days  
Heating Degree Days 25 27  
Month to date heating degree days 260 285  
Since 1 July heating degree days 5018 5307  
Cooling Degree Days 0 0  
Month to date cooling degree days 0 0  
Year to date cooling degree days 0 0  
Moisture  
Dew Point 18 °F    
Average Humidity 45    
Maximum Humidity 69    
Minimum Humidity 21    
Precipitation  
Precipitation 0.00 in 0.04 in 0.41 in (1993)
Month to date precipitation 0.12 0.33  
Year to date precipitation 0.48 2.01  
Sea Level Pressure  
Sea Level Pressure 30.31 in    
Wind  
Wind Speed 11 mph (WSW)    
Max Wind Speed 23 mph    
Max Gust Speed 30 mph    
Visibility 10 miles    
Events      
T = Trace of Precipitation, MM = Missing Value Source: NWS Daily Summary

Daily Weather History Graph

Daily Weather History Graph

Search for Another Location

Airport:

Trip Planner

Search our weather history database for the weather conditions in past years. The results will help you decide how hot, cold, wet, or windy it might be!

Date:

Astronomy

Mar. 10, 2013 Rise Set
Actual Time 7:55 AM MDT 7:36 PM MDT
Civil Twilight 7:27 AM MDT 8:04 PM MDT
Nautical Twilight 6:54 AM MDT 8:36 PM MDT
Astronomical Twilight 6:21 AM MDT 9:09 PM MDT
Moon 6:58 AM MDT (3/10) 6:48 PM MDT (3/10)
Length of Visible Light 12h 37m
Length of Day
11h 40m
Waning Crescent, 1% of the Moon is Illuminated
Mar 10
Waning Crescent
Mar 11
New
Mar 19
First Quarter
Mar 27
Full
Apr 2
Last Quarter

Hourly Weather History & Observations

Time (MDT) Temp. Windchill Dew Point Humidity Pressure Visibility Wind Dir Wind Speed Gust Speed Precip Events Conditions
12:53 AM 36.0 °F 27.5 °F 21.9 °F 57% 30.30 in 10.0 mi WSW 12.7 mph - N/A   Clear
3:53 AM 34.0 °F 26.0 °F 21.9 °F 61% 30.31 in 10.0 mi WSW 10.4 mph - N/A   Clear
4:53 AM 32.0 °F 24.2 °F 21.9 °F 66% 30.32 in 10.0 mi WSW 9.2 mph - N/A   Clear
6:53 AM 33.1 °F 24.9 °F 21.0 °F 61% 30.35 in 10.0 mi WSW 10.4 mph - N/A   Clear
7:53 AM 30.0 °F 22.4 °F 21.0 °F 69% 30.38 in 10.0 mi WSW 8.1 mph - N/A   Clear
8:53 AM 35.1 °F - 21.9 °F 59% 30.38 in 10.0 mi Calm Calm - N/A   Clear
9:53 AM 39.9 °F 32.1 °F 21.0 °F 47% 30.38 in 10.0 mi West 13.8 mph - N/A   Clear
10:53 AM 43.0 °F 36.8 °F 17.1 °F 35% 30.38 in 10.0 mi West 11.5 mph 23.0 mph N/A   Clear
11:53 AM 46.0 °F 39.0 °F 18.0 °F 33% 30.37 in 10.0 mi West 17.3 mph 25.3 mph N/A   Clear
12:53 PM 46.9 °F - 18.0 °F 32% 30.35 in 10.0 mi West 13.8 mph 26.5 mph N/A   Clear
1:53 PM 50.0 °F - 17.1 °F 27% 30.32 in 10.0 mi West 13.8 mph 23.0 mph N/A   Clear
2:53 PM 50.0 °F - 16.0 °F 26% 30.29 in 10.0 mi West 13.8 mph 23.0 mph 0.00 in   Clear
3:53 PM 52.0 °F - 15.1 °F 23% 30.27 in 10.0 mi West 15.0 mph 25.3 mph N/A   Clear
4:53 PM 51.1 °F - 15.1 °F 24% 30.27 in 10.0 mi West 17.3 mph 24.2 mph N/A   Clear
5:53 PM 51.1 °F - 12.0 °F 21% 30.25 in 10.0 mi West 15.0 mph 20.7 mph N/A   Clear
6:53 PM 48.0 °F - 10.0 °F 22% 30.25 in 10.0 mi West 10.4 mph 23.0 mph N/A   Clear
7:53 PM 42.1 °F 37.1 °F 12.0 °F 29% 30.28 in 10.0 mi WSW 8.1 mph - N/A   Clear
9:53 PM 41.0 °F 36.4 °F 18.0 °F 40% 30.26 in 10.0 mi SSW 6.9 mph - N/A   Scattered Clouds
10:53 PM 39.0 °F 31.8 °F 19.0 °F 45% 30.26 in 10.0 mi SW 11.5 mph - N/A   Clear
11:53 PM 41.0 °F 33.9 °F 18.0 °F 40% 30.23 in 10.0 mi WSW 12.7 mph - N/A   Partly Cloudy
12:53 AM 39.0 °F 31.4 °F 19.9 °F 46% 30.23 in 10.0 mi WSW 12.7 mph - N/A   Clear